Location: Unspecified
(0.0000°N, 0.0000°E)
Time: 03:57:03
(UTC+00:00)

Vanguard 1 - Pass Details

Date: 11 December 2023
Orbit: 653 x 3826 km, 34.3° (Epoch: 22 February)

Event Time Altitude Azimuth Distance (km) Brightness Sun altitude
Rises 21:19:47 0° 319° (NW) 7,146 14.5 -46.2°
Reaches altitude 10° 21:24:58 10° 327° (NNW) 6,447 14.1 -47.2°
Enters shadow 21:33:20 26° 345° (NNW) 5,513 13.6 -48.9°
Maximum altitude 21:45:20 40° 31° (NNE) 4,866 - -51.3°
Drops below altitude 10° 22:04:20 10° 93° (E) 6,150 - -54.9°
Sets 22:08:57 0° 101° (E) 6,818 - -55.7°
